Flag for U.S.A. Weather past 2 weeks in Ann Arbor, Michigan, U.S.A.

Now
53 °F

Clear.


Feels Like: 51 °F
Forecast: 37 / 75 °F
Wind: 8 mph from East

Location: Ann Arbor Municipal Airport

Current Time: May 22, 2015 at 11:14:54 PM

Latest Report: May 22, 2015 at 10:53 PM


Visibility: 10 mi

Pressure: 30.31 "Hg

Humidity: 52%

Dew point: 36 °F

Location of Ann ArborLocation

Historic Weather in Ann Arbor — Graph

°F

Ann Arbor temperature yesterday

Maximum temperature yesterday: 63 °F (at 2:53 PM)
Minimum temperature yesterday: 46 °F (at 5:53 AM)
Average temperature yesterday: 53 °F

Past Weeks' High & Low Weather Summary

 TemperatureHumidityPressure
High85 °F (May 8, 2:53 PM)100% (May 9, 2:03 AM)30.48 "Hg (May 9, 2:03 AM)
Low35 °F (May 14, 6:00 AM)26% (May 22, 5:53 PM)29.77 "Hg (May 11, 5:53 PM)
Average61 °F72%30.08 "Hg
* Reported May 7 9:53 PM — May 22 9:53 PM, Ann Arbor, Weather by CustomWeather, © 2015

Note: Actual official high and low records may vary slightly from our data, if they occured in-between our weather recording intervals... More about our weather records

Advertising

Ann Arbor weather history for previous 24 hours

 ConditionsComfort  
Time TempWeatherWind HumidityBarometerVisibility
9:53 PM
Fri, May 22
50 °FSunny.No wind61%30.27 "Hg10 mi
8:53 PM59 °FSunny.3 mph35%30.24 "Hg10 mi
7:53 PM64 °FSunny.8 mph28%30.23 "Hg10 mi
6:53 PM65 °FSunny.10 mph29%30.23 "Hg10 mi
5:53 PM66 °FSunny.6 mph26%30.23 "Hg10 mi
4:53 PM66 °FSunny.7 mph27%30.22 "Hg10 mi
3:53 PM66 °FSunny.10 mph28%30.22 "Hg10 mi
2:53 PM65 °FSunny.14 mph29%30.21 "Hg10 mi
1:53 PM64 °FSunny.14 mph29%30.20 "Hg10 mi
12:53 PM62 °FSunny.13 mph29%30.19 "Hg10 mi
11:53 AM62 °FSunny.13 mph30%30.19 "Hg10 mi
10:53 AM60 °FSunny.10 mph30%30.17 "Hg10 mi
9:53 AM56 °FSunny.10 mph33%30.16 "Hg10 mi
8:53 AM54 °FSunny.12 mph34%30.14 "Hg10 mi
7:53 AM50 °FSunny.10 mph48%30.12 "Hg10 mi
6:53 AM47 °FPassing clouds.5 mph59%30.11 "Hg10 mi
5:53 AM49 °FPassing clouds.6 mph61%30.07 "Hg10 mi
4:53 AM52 °FPassing clouds.8 mph69%30.04 "Hg10 mi
3:53 AM52 °FLight rain. Mostly cloudy.7 mph72%30.01 "Hg10 mi
2:53 AM56 °FLight rain. Mostly cloudy.12 mph51%30.00 "Hg10 mi
1:53 AM55 °FOvercast.9 mph53%29.99 "Hg10 mi
12:53 AM50 °FPassing clouds.6 mph66%30.00 "Hg10 mi
11:53 PM
Thu, May 21
47 °FPassing clouds.6 mph71%30.00 "Hg10 mi
Weather by CustomWeather, © 2015

See weather overviewHow to use our weather pages